Погода в Каце

Погода в Каце : погода сейчас, прогноз погоды и архив. Всё, что Вы хотите узнать о погоде в Каце!

Поиск расширенной информации на нашем сайте:

Полезная информация: Плитка из резины резиновая плитка.

Другие новости

Новости СМИ2

Главная страница сайта

Новости сайта

03.07.2017

Напоминаем, что на нашем специализированном сайте Метеоцентр.Азия вы можете получить высокодетализированные автоматические прогнозы погоды по пунктам России, СНГ и мира в авиационном формате (включающие направление и скорость ветра, видимость, явления погоды, количество и форму облачности, нижнюю и верхнюю границу облачности).

Рекомендуем: Видеоинтерфейс, интерфейс hdmi мультимедийный: схема распиновки.

Погода в Каце - сегодня

Время (UTC), дата Ветер
(°,м/с) 
Видим.   Явления Облачность Т
(°С)
Тd
(°С)
f(%) Тe
(°С)
Pmin
(гПа)
dP
(гПа)
Po
(мм)
O2
(г/м3)
Тmin Tmax R s Состояние
почвы
18 22.07.17 тихо ()   20000 м    3/0 верхняя 
[Ci sp]
+10.7 +9.8 94 +12  1014.6  -0.3  719  277           
21 22.07.17 050 (СВ) 20000 м    8/0 верхняя 
[Ci sp]
+9.5 +8.8 95 +11  1014.2  -0.6  718  278           
00 23.07.17 090 (В) 20000 м    9/9 2000 м средняя 
[As trans]
+14.4 +13.6 95 +22  1013.1  718  272  +9.3        мокрая 
03 23.07.17 080 (В) 20000 м    5/5 1000 м 
[Cu med, cong]
+16.1 +13.9 87 +24  1012.5  -0.2  718  270           
06 23.07.17 080 (В) 20000 м    6/6 1000 м 
[Cu med, cong]
+19.4 +14.3 72 +29  1011.7  -0.2  718  267           
09 23.07.17 080 (В) 20000 м    8/8 800 м кучево-дожд. 
[Cb cap]
+20.4 +14.1 67 +29  1010.7  -0.8  717  266           
12 23.07.17 100 (В) 20000 м    5/0 верхняя 
[Ci sp]
+21.1 +13.4 61 +28  1009.8  -0.7  717  265    +21.8       
15 23.07.17 тихо ()   20000 м    6/3 1000 м верхняя 
[Cu med, cong|Ci sp]
+15.2 +13.5 90 +23  1011.3  0.4  717  271           
18 23.07.17 тихо ()   20000 м    6/0 верхняя 
[Ci sp]
+13.4 +12.4 94 +19  1011  -0.7  717  273           
21 23.07.17 тихо ()   20000 м    6/6 1000 м 
[Sc]
+11.6 +10.8 95 +15  1010.8  -0.5  716  275           
00 24.07.17 тихо ()   20000 м    6/3 1000 м верхняя 
[Cu med, cong|Ci sp]
+14.8 +13.6 93 +22  1010.3  0.2  716  271  +11        влажная 
03 24.07.17 180 (Ю) 20000 м    6/6 1000 м 
[Cu med, cong]
+19.4 +13.9 70 +29  1009.1  -0.3  716  267           
06 24.07.17 250 (З) 20000 м    5/5 1000 м 
[Cu med, cong]
+22.8 +14.1 58 +31  1008.2  -0.2  716  263           
09 24.07.17 270 (З) 20000 м  гроза без осадков{ливн. осадки}  9/9 840 м кучево-дожд. 
[Cb cap]
+18.4 +15.4 83 +31  1008.9  -0.2  716  267           
12 24.07.17 240 (ЮЗ) 20000 м  в посл. час ливневой дождь{гроза}  9/9 800 м кучево-дожд. 
[Cb cap]
+16.7 +15.1 90 +28  1009.6  0.3  716  269    +23.2  0.9     
15 24.07.17 тихо ()   20000 м    8/8 870 м кучево-дожд. 
[Cb cap]
+14.7 +13.7 94 +22  1009.5  -0.5  716  271           
18 24.07.17 080 (В) 20000 м    6/6 600 м кучево-дожд. 
[Cb cap]
+12.3 +11.5 95 +18  1010.2  0.1  716  274           
21 24.07.17 тихо ()   20000 м    8/8 2000 м средняя 
[As trans]
+9.5 +8.8 95 +10  1009.7  -1  715  277           
00 25.07.17 260 (З) 20000 м    4/0 верхняя 
[Ci sp]
+13.5 +12.8 96 +21  1009  0.2  715  272  +8.7        влажная 
03 25.07.17 160 (Ю) 20000 м    8/0 верхняя 
[Ci fib]
+20.2 +12.5 61 +26  1006.8  -0.8  715  266           
06 25.07.17 190 (Ю) 20000 м    8/4 1000 м верхняя 
[Cu med, cong|Ci sp]
+22.3 +13.5 57 +30  1005.6  -0.7  714  263           
09 25.07.17 200 (Ю) 20000 м    8/8 1230 м 
[Cu med, cong]
+24.4 +13.8 52 +32  1004.1  -1.1  713  261           
12 25.07.17 180 (Ю) 20000 м    5/3 1000 м верхняя 
[Cu med, cong|Ci fib]
+23.6 +12.3 49 +29  1003.3  -0.9  713  262    +24.7       
15 25.07.17 тихо ()   20000 м    4/4 1000 м 
[Cu med, cong]
+15 +13.4 90 +22  1003.9  -0.9  712  269           
18 25.07.17 тихо ()   20000 м    4/4 1000 м 
[Cu med, cong]
+12.1 +11.1 94 +16  1003.5  -1  711  272           
Время (UTC), дата Ветер
(°,м/с) 
Видим.   Явления Облачность Т
(°С)
Тd
(°С)
f(%) Тe
(°С)
Pmin
(гПа)
dP
(гПа)
Po
(мм)
O2
(г/м3)
Тmin Tmax R s Состояние
почвы

Для получения пояснительной информации подведите курсор к названию столбца.

ПОГОДА в Каце - архив

Всё, что Вы хотите узнать о погоде в Каце - удобно и подробно!

Выберите нужную дату (начиная с 1 января 2015* года) и нажмите кнопку "Найти".
Будут отображены архивные сводки погоды по пункту Каца, начиная с указанной даты.


Отображать данные в формате CSV (для использования в таблицах Excel)


Внимание! Наш архив погоды предназначен исключительно для личного некоммерческого использования в познавательных целях. Если Вам необходимы официальные справки о состоянии погоды (для производственных, юридических, коммерческих и т.п. целей), обращайтесь в органы Росгидромета.

*Примечание: данная дата относится к архиву по метеостанциям СССР (Россия, СНГ, Балтия).
Архив по метеостанциям Зарубежной Европы и Азии (кроме Китая) хранится 10 дней, по другим регионам земного шара (Китай, Африка, Америка, Австралия, Океания) - 1 день.

Каца - район местоположения метеостанции


Название, широта, долгота, высота метеостанции:
Каца 56.1°ш. 92.2°д. 479 м над ур. моря [Российская Федерация]

Дополнительная информация

В oтличие oт бoльшинства пoгoдных сайтoв мы публикуем пoдрoбную метеoинфoрмацию в детальнoм прoфессиoнальнoм фoрмате.

Характеристики температуры и влажнoсти вoздуха измеряются на высoте 2 м в тени вдали oт зданий и деревьев.
Скoрoсть ветра измеряется на высoте 10 м (на урoвне рoста челoвека скoрoсть ветра ниже в 1.5-2 раза). Если метеoстанция нахoдится в гoрoде или в лесу, тo скoрoсть ветра занижена на 2-4 м/с пo сравнению с oткрытым местoм. Скoрoсть ветра над акватoриями крупных рек и oзёр, а также на вершинах хoлмoв на 2-5 м/с выше, чем в oбычных услoвиях.
Атмoсфернoе давление в разных тoчках местнoсти мoжет значительнo oтличаться oт давления на метеoстанции, в зависимoсти oт услoвий рельефа (при пoдъёме на 10 м давление пoнижается примернo на 1 мм рт.ст.).